Tracking 17842 objects as of 1-September-2016
HD Live streaming from Space Station
objects crossing your sky now

COSMOS 2416

Track COSMOS 2416 now!
10-day predictions
COSMOS 2416 is classified as:


NORAD ID: 28908
Int'l Code: 2005-048A
Perigee: 1,443.8 km
Apogee: 1,453.9 km
Inclination: 82.5 °
Period: 114.7 minutes
Semi major axis: 7819 km
RCS: 1.597 m2 (large)
Launch date: December 21, 2005
Source: Commonwealth of Independent States (former USSR) (CIS)
Launch site: PLESETSK MISSILE AND SPACE COMPLEX (PKMTR)
Your satellite tracking list
Your tracking list is empty





NASA's NSSDC Master Catalog

Two Line Element Set (TLE):
1 28908U 05048A   16243.96331359 +.00000025 +00000-0 +89997-4 0  9992
2 28908 082.4650 074.8841 0006424 231.0820 283.4399 12.55470779489992
Source of the keplerian elements: AFSPC

N2YO: 528